This is the latest recevied weather packets stored in our database for station/object AA8FM-13. If no packets are shown the sender has not sent any weather packets the latest 10 day(s).
| Time | Temp. | Humidity | Pressure | Rain* | Wind** | Luminosity | Snow |
|---|---|---|---|---|---|---|---|
| 1778169699 | 15° C | 53% | 1009.7 hPa | 0 mm | - | 725 W/m² | - |
| 1778169394 | 14.44° C | 53% | 1009.9 hPa | 0 mm | - | 725 W/m² | - |
| 1778169091 | 14.44° C | 56% | 1009.9 hPa | 0 mm | - | 363 W/m² | - |
| 1778168787 | 15° C | 54% | 1009.7 hPa | 0 mm | - | 157 W/m² | - |
| 1778168485 | 14.44° C | 53% | 1009.7 hPa | 0 mm | - | 542 W/m² | - |
| 1778168181 | 15° C | 51% | 1010 hPa | 0 mm | - | 751 W/m² | - |
| 1778167878 | 15° C | 57% | 1010 hPa | 0 mm | - | 701 W/m² | - |
| 1778167574 | 13.89° C | 58% | 1010 hPa | 0 mm | - | 673 W/m² | - |
| 1778167270 | 15° C | 54% | 1009.9 hPa | 0 mm | - | 657 W/m² | - |
| 1778166966 | 13.89° C | 55% | 1010 hPa | 0 mm | - | 623 W/m² | - |
| 1778166664 | 13.89° C | 56% | 1010.2 hPa | 0 mm | - | 596 W/m² | - |
| 1778166361 | 13.89° C | 57% | 1009.9 hPa | 0 mm | - | 609 W/m² | - |
| 1778166057 | 13.89° C | 55% | 1010.1 hPa | 0 mm | - | 595 W/m² | - |
| 1778165752 | 14.44° C | 51% | 1010.3 hPa | 0 mm | - | 621 W/m² | - |
| 1778165450 | 13.89° C | 53% | 1010.4 hPa | 0 mm | - | 578 W/m² | - |
| 1778165146 | 13.89° C | 59% | 1010.6 hPa | 0 mm | - | 558 W/m² | - |
| 1778164845 | 14.44° C | 57% | 1010.6 hPa | 0 mm | - | 542 W/m² | - |
| 1778164541 | 13.33° C | 61% | 1010.5 hPa | 0 mm | - | 524 W/m² | - |
| 1778164239 | 13.89° C | 61% | 1010.6 hPa | 0 mm | - | 509 W/m² | - |
| 1778163938 | 12.78° C | 63% | 1010.7 hPa | 0 mm | - | 508 W/m² | - |
| 1778163631 | 13.89° C | 61% | 1010.6 hPa | 0 mm | - | 489 W/m² | - |
| 1778163327 | 13.33° C | 61% | 1010.7 hPa | 0 mm | - | 488 W/m² | - |
| 1778163024 | 12.78° C | 62% | 1010.9 hPa | 0 mm | - | 485 W/m² | - |
| 1778162721 | 12.78° C | 65% | 1010.9 hPa | 0 mm | - | 453 W/m² | - |
| 1778162418 | 12.78° C | 60% | 1011.1 hPa | 0 mm | - | 432 W/m² | - |
* Rain latest hour (hover to see other rain measurements)
** Current wind speed in m/s (hover to see current wind gust speed)